Regional Weather Roundup
Issued by NWS

Home | Current Version | Previous Version | Graphics & Text | Print | Product List | Glossary On
Versions: 1 2 3 4 5 6 7 8 9 10 11 12 13 14 15 16 17 18 19 20 21 22 23 24 25 26 27 28 29 30 31 32 33 34 35 36 37 38 39 40 41 42 43 44 45 46 47 48 49 50
995
ASUS43 KLMK 300510
RWRKY
KENTUCKY REGIONAL WEATHER ROUNDUP
NATIONAL WEATHER SERVICE LOUISVILLE KY
100 AM EDT TUE AUG 30 2016

NOTE "FAIR" INDICATES FEW OR NO CLOUDS BELOW 12,000 FEET
WITH NO SIGNIFICANT WEATHER AND/OR OBSTRUCTIONS TO VISIBILITY.

KYZ001>023-026-027-061>063-070>075-300600-
WESTERN AND SOUTH CENTRAL KENTUCKY

CITY           SKY/WX    TMP DP  RH WIND       PRES   REMARKS
PADUCAH        CLEAR     76  72  87 CALM      30.10F
HENDERSON      CLEAR     73  68  83 CALM      30.11F
OWENSBORO      CLEAR     79  74  84 NE5       30.13S
HOPKINSVILLE   CLEAR     77  73  88 NE3       30.11F
BOWLING GREEN  CLEAR     76  70  82 NE3       30.12F
GLASGOW        CLEAR     73  72  97 NE5       30.13S
$$

KYZ024-025-028>034-038-045-046-053-300600-
NORTH CENTRAL KENTUCKY

CITY           SKY/WX    TMP DP  RH WIND       PRES   REMARKS
LOUISVILLE/SDF CLEAR     79  71  76 N5        30.14S
LOUISVILLE/LOU CLEAR     77  71  82 NW5       30.15S
FORT KNOX      CLEAR     74  70  86 N3        30.14S
$$

KYZ035>037-039>044-047>052-055>060-089>105-300600-
NORTHEAST KENTUCKY

CITY           SKY/WX    TMP DP  RH WIND       PRES   REMARKS
LEXINGTON      CLEAR     76  69  79 NE5       30.17S
COVINGTON      CLEAR     77  71  82 E6        30.17S
FRANKFORT      CLEAR     73  70  90 CALM      30.15S
$$

KYZ054-064>069-076>088-106>120-300600-
SOUTHEAST KENTUCKY

CITY           SKY/WX    TMP DP  RH WIND       PRES   REMARKS
JACKSON        CLEAR     70  68  93 CALM      30.18F
LONDON         CLEAR     72  67  84 CALM      30.16S
SOMERSET       CLEAR     70  66  88 CALM      30.16S
MIDDLESBORO    PTCLDY    69  69 100 CALM      30.16F
MONTICELLO     CLEAR    N/A N/A N/A N15       30.16F
$$





USA.gov is the U.S. government's official web portal to all federal, state and local government web resources and services.